Regional Weather Roundup
Issued by NWS

Home | Current Version | Previous Version | Text Only | Print | Product List | Glossary On
Versions: 1 2 3 4 5 6 7 8 9 10 11 12 13 14 15 16 17 18 19 20 21 22 23 24 25 26 27 28 29 30 31 32 33 34 35 36 37 38 39 40 41 42 43 44 45 46 47 48 49 50
000
ASUS43 KTOP 081608
RWRKS

WEATHER ROUNDUP FOR KANSAS
NATIONAL WEATHER SERVICE GOODLAND KS
1000 AM CST THU DEC 08 2016

NOTE:  "FAIR" INDICATES FEW OR NO CLOUDS BELOW 12,000 FEET WITH NO
SIGNIFICANT WEATHER AND/OR OBSTRUCTIONS TO VISIBILITY.

KSZ001>006-013>018-027>032-041>047-081700-
NORTHWEST KANSAS

CITY           SKY/WX    TMP DP  RH WIND       PRES   REMARKS
GOODLAND       SUNNY      7  -3  64 N13       30.57R WCI  -9
HAYS           SUNNY     14   3  61 NW14      30.70R WCI  -1
HILL CITY      SUNNY     11   1  64 NW14      30.70R WCI  -5
RUSSELL        SUNNY     13   4  67 NW16      30.69R WCI  -3
$$

KSZ061>065-074>080-084>089-081700-
SOUTHWEST KANSAS

CITY           SKY/WX    TMP DP  RH WIND       PRES   REMARKS
DODGE CITY     CLOUDY    11   2  67 N16G24    30.65R WCI  -6
ELKHART          N/A     13   0  56 N1          N/A
GARDEN CITY    CLOUDY    11   0  61 N14       30.64R WCI  -5
GREAT BEND     SUNNY     16   5  62 N16       30.69R WCI   1
LIBERAL        SUNNY     16   3  57 NW10      30.66R WCI   3
PRATT          MOSUNNY   13   3  65 N13       30.70R WCI  -2
$$

KSZ066>073-081>083-090>101-081700-
SOUTHEAST KANSAS

CITY           SKY/WX    TMP DP  RH WIND       PRES   REMARKS
CHANUTE        SUNNY     20  10  65 NW14      30.68R WCI   7
COFFEYVILLE    SUNNY     22  11  62 NW14      30.71R WCI   9
HUTCHINSON     SUNNY     19   5  54 NW14      30.69R WCI   6
MEDICINE LODGE   N/A     19   5  54 N20       30.70R WCI   3
NEWTON         SUNNY     17   7  64 NW16      30.69R WCI   2
PARSONS        SUNNY     22  11  62 N15       30.70R WCI   9
WICHITA INTL   MOSUNNY   21   6  52 N13       30.70R WCI   9
WICHITA JABRA  SUNNY     19   7  59 NW15      30.69R WCI   5
WICHITA MCCONL SUNNY     20   5  51 N13       30.69R WCI   7
WINFIELD       SUNNY     22   8  55 N16       30.71R WCI   8
$$

KSZ007>012-019>026-033>040-048>060-102>105-081700-
NORTHEAST KANSAS

CITY           SKY/WX    TMP DP  RH WIND       PRES   REMARKS
CONCORDIA      SUNNY     15   5  64 NW14      30.68R WCI   0
EMPORIA        SUNNY     18   9  68 NW12      30.67R WCI   5
LAWRENCE       SUNNY     19   9  65 W13       30.67R WCI   6
MANHATTAN      SUNNY     19   6  57 NW9G18    30.70R
MARYSVILLE     SUNNY     18   5  57 NW16      30.66R WCI   3
OLATHE IND     SUNNY     18   8  65 NW16      30.64R WCI   3
OLATHE EXE     SUNNY     17   7  64 NW15      30.63R WCI   2
SALINA         SUNNY     18   6  59 NW16      30.71R WCI   3
TOPEKA BILLARD SUNNY     19   8  62 NW13      30.68R WCI   6
TOPEKA FORBES  SUNNY     20   8  60 NW15      30.66R WCI   6
$$




USA.gov is the U.S. government's official web portal to all federal, state and local government web resources and services.